Temp
-12 -12 -12 -12 -12 -12 -13 -13 -13 -13 -13 -13 -13 -14 -14 -14 -15 -15 -16 -16 -17 -19 -20 -21 -22 -22 -22 -22 -22 -22 -21 -21 -21 -20 -20 -18 -15 -15 -15 -14 -14 -14 -14 -14
-12 -12 -12 -12 -12 -12 -13 -13 -13 -14 -14 -14 -14 -14 -15 -15 -16 -17 -18 -19 -21 -22 -22 -22 -23 -23 -23 -23 -23 -23 -23 -23 -22 -22 -22 -21 -20 -19 -16 -15 -14 -14 -14 -14
-12 -12 -12 -12 -13 -13 -13 -14 -14 -14 -14 -14 -14 -14 -15 -16 -17 -18 -19 -21 -22 -22 -23 -23 -23 -23 -23 -23 -23 -23 -23 -23 -23 -22 -22 -22 -21 -21 -20 -18 -17 -15 -15 -15
-12 -12 -12 -13 -13 -13 -14 -14 -14 -14 -14 -16 -16 -17 -17 -17 -18 -18 -19 -21 -22 -23 -23 -24 -23 -23 -23 -23 -23 -23 -23 -23 -22 -22 -22 -22 -21 -21 -21 -20 -19 -18 -17 -15
-13 -13 -13 -13 -14 -14 -15 -15 -15 -15 -15 -15 -16 -17 -17 -17 -18 -19 -19 -21 -22 -23 -24 -24 -24 -24 -24 -24 -24 -23 -23 -23 -23 -22 -22 -22 -21 -21 -21 -20 -20 -20 -19 -18
-13 -13 -14 -14 -15 -15 -15 -15 -15 -15 -16 -16 -17 -17 -18 -18 -18 -19 -20 -21 -22 -23 -24 -24 -24 -24 -24 -24 -25 -25 -24 -24 -23 -23 -23 -22 -22 -21 -21 -21 -20 -20 -20 -19
-13 -14 -14 -15 -15 -15 -15 -15 -16 -16 -16 -17 -17 -17 -18 -18 -19 -19 -19 -20 -21 -21 -23 -24 -24 -25 -25 -25 -25 -25 -25 -24 -24 -24 -23 -22 -22 -22 -21 -21 -20 -20 -20 -20
-14 -15 -15 -15 -15 -15 -16 -16 -16 -17 -17 -17 -17 -18 -18 -18 -19 -19 -19 -20 -20 -21 -22 -23 -24 -25 -25 -25 -25 -25 -25 -24 -24 -24 -23 -23 -22 -21 -21 -21 -21 -20 -20 -20
-15 -15 -15 -16 -16 -16 -16 -16 -17 -17 -17 -17 -18 -18 -18 -18 -18 -19 -19 -20 -20 -21 -22 -22 -23 -24 -25 -25 -25 -25 -25 -25 -25 -24 -24 -24 -23 -22 -21 -21 -21 -20 -20 -20
-15 -16 -16 -16 -16 -16 -16 -16 -17 -17 -17 -18 -18 -18 -18 -19 -19 -19 -19 -20 -20 -21 -21 -22 -23 -24 -24 -25 -25 -26 -26 -25 -25 -25 -25 -24 -24 -23 -22 -21 -21 -20 -20 -20
-16 -16 -16 -16 -16 -16 -16 -17 -17 -17 -17 -18 -18 -18 -19 -19 -19 -19 -20 -20 -20 -21 -21 -22 -23 -23 -24 -25 -25 -26 -26 -26 -26 -25 -25 -25 -25 -24 -24 -23 -21 -20 -20 -20
-16 -16 -16 -16 -16 -16 -16 -17 -17 -17 -17 -18 -18 -18 -19 -19 -19 -20 -20 -20 -21 -21 -21 -22 -23 -23 -24 -24 -25 -26 -26 -26 -26 -26 -25 -25 -25 -25 -24 -24 -23 -21 -20 -20
-16 -16 -16 -16 -16 -16 -17 -17 -17 -17 -17 -18 -18 -18 -19 -19 -19 -20 -20 -20 -21 -21 -22 -22 -23 -23 -24 -25 -25 -25 -26 -26 -26 -26 -26 -26 -25 -25 -25 -25 -24 -23 -21 -20
-16 -16 -16 -17 -16 -16 -17 -17 -17 -17 -18 -18 -18 -18 -19 -19 -19 -20 -20 -21 -21 -21 -22 -22 -23 -23 -24 -24 -25 -26 -26 -27 -27 -27 -26 -26 -26 -26 -25 -25 -25 -24 -22 -21
-16 -16 -17 -17 -16 -17 -17 -17 -17 -17 -18 -18 -18 -18 -19 -19 -20 -20 -20 -20 -21 -22 -22 -23 -23 -23 -24 -24 -25 -25 -26 -27 -27 -27 -27 -27 -26 -26 -26 -25 -25 -24 -23 -22
-17 -16 -17 -16 -17 -17 -17 -17 -17 -18 -18 -18 -18 -18 -19 -19 -20 -20 -20 -21 -21 -22 -22 -23 -23 -23 -24 -24 -24 -25 -26 -26 -27 -28 -27 -27 -27 -26 -26 -26 -25 -24 -24 -23
-17 -17 -17 -16 -17 -17 -17 -17 -17 -18 -18 -18 -18 -18 -18 -19 -19 -20 -20 -21 -21 -22 -22 -23 -23 -24 -24 -24 -24 -24 -25 -26 -27 -28 -28 -28 -27 -27 -26 -26 -26 -25 -24 -24
-17 -17 -17 -17 -17 -17 -17 -17 -17 -18 -18 -18 -18 -18 -19 -19 -19 -20 -20 -20 -21 -22 -22 -23 -23 -24 -24 -24 -24 -24 -25 -26 -27 -28 -28 -28 -28 -27 -27 -26 -26 -25 -25 -24
-17 -17 -17 -17 -17 -17 -17 -17 -17 -18 -18 -18 -18 -18 -19 -19 -19 -19 -20 -20 -21 -22 -22 -23 -23 -24 -24 -24 -24 -24 -25 -25 -26 -28 -29 -29 -28 -28 -27 -26 -26 -25 -25 -25
-17 -17 -17 -17 -17 -17 -17 -17 -17 -18 -18 -18 -18 -18 -19 -19 -19 -19 -20 -20 -21 -21 -22 -22 -23 -24 -24 -24 -24 -24 -24 -25 -26 -27 -29 -29 -29 -28 -27 -27 -26 -26 -25 -25
-17 -17 -17 -17 -17 -17 -17 -18 -18 -18 -18 -18 -18 -18 -19 -19 -19 -19 -20 -20 -21 -21 -22 -22 -23 -23 -24 -24 -24 -24 -24 -25 -25 -27 -28 -29 -29 -28 -28 -27 -27 -26 -25 -25
-17 -17 -17 -17 -17 -17 -18 -18 -18 -18 -18 -18 -18 -18 -19 -19 -19 -19 -20 -20 -20 -21 -22 -22 -23 -23 -24 -24 -24 -25 -25 -25 -25 -26 -28 -29 -29 -29 -28 -28 -27 -27 -26 -25
-17 -17 -17 -17 -17 -17 -18 -18 -18 -18 -18 -18 -18 -18 -19 -19 -19 -19 -20 -20 -20 -21 -22 -22 -23 -23 -24 -24 -24 -25 -25 -25 -25 -26 -27 -29 -29 -29 -29 -29 -28 -28 -27 -26
-17 -17 -17 -17 -17 -18 -18 -18 -18 -18 -18 -18 -19 -19 -19 -19 -19 -19 -20 -20 -20 -21 -21 -22 -22 -23 -23 -24 -24 -25 -25 -25 -25 -26 -26 -28 -29 -29 -29 -29 -28 -28 -28 -27
-17 -17 -17 -17 -17 -18 -18 -18 -18 -18 -18 -19 -19 -19 -19 -19 -19 -19 -20 -20 -20 -21 -21 -22 -22 -23 -23 -24 -24 -25 -25 -25 -26 -26 -26 -27 -29 -30 -29 -29 -29 -28 -28 -28
-17 -17 -17 -17 -17 -18 -18 -18 -18 -18 -19 -19 -19 -19 -19 -19 -19 -19 -20 -20 -20 -21 -21 -22 -22 -23 -23 -23 -24 -24 -25 -25 -26 -26 -26 -27 -28 -29 -30 -29 -29 -29 -28 -28
Height
5816 5815 5812 5810 5807 5804 5799 5795 5790 5786 5782 5777 5771 5765 5759 5753 5746 5738 5730 5723 5715 5709 5704 5699 5694 5690 5685 5680 5676 5672 5670 5668 5666 5664 5663 5662 5663 5665 5668 5671 5675 5679 5682 5686
5811 5810 5807 5805 5801 5799 5795 5791 5787 5783 5777 5773 5768 5761 5754 5746 5739 5731 5723 5716 5709 5703 5698 5694 5690 5685 5680 5675 5671 5667 5664 5661 5657 5654 5652 5651 5650 5648 5648 5651 5655 5661 5666 5670
5806 5805 5802 5799 5797 5795 5791 5787 5782 5779 5773 5768 5761 5755 5745 5740 5733 5725 5719 5713 5707 5702 5697 5691 5686 5680 5675 5671 5666 5661 5658 5655 5652 5648 5645 5642 5641 5641 5637 5635 5637 5641 5647 5653
5802 5800 5798 5796 5793 5791 5787 5783 5779 5774 5768 5764 5758 5753 5745 5736 5730 5723 5716 5709 5702 5696 5691 5685 5680 5674 5668 5663 5658 5654 5650 5646 5644 5640 5638 5634 5632 5632 5631 5628 5626 5625 5628 5634
5798 5796 5794 5792 5790 5788 5784 5780 5776 5772 5766 5760 5754 5748 5741 5734 5727 5720 5713 5705 5697 5691 5684 5679 5672 5666 5660 5654 5650 5645 5641 5638 5634 5631 5628 5626 5624 5623 5623 5621 5618 5615 5614 5618
5794 5792 5791 5789 5786 5784 5781 5777 5773 5767 5763 5759 5755 5748 5741 5735 5728 5720 5711 5703 5696 5689 5681 5674 5666 5659 5651 5644 5639 5635 5632 5629 5626 5622 5618 5615 5613 5612 5613 5612 5610 5608 5603 5605
5790 5788 5787 5785 5784 5782 5778 5775 5771 5767 5761 5757 5752 5745 5741 5734 5727 5719 5711 5704 5695 5686 5677 5668 5660 5652 5644 5637 5630 5626 5623 5620 5617 5614 5609 5605 5603 5601 5601 5601 5600 5599 5596 5591
5786 5785 5784 5785 5783 5780 5777 5773 5769 5763 5760 5757 5752 5745 5739 5732 5725 5719 5711 5702 5692 5683 5673 5663 5654 5646 5638 5631 5624 5619 5616 5612 5609 5605 5600 5596 5593 5591 5589 5589 5590 5589 5586 5583
5782 5782 5783 5781 5780 5779 5774 5771 5768 5763 5760 5756 5750 5745 5738 5731 5724 5717 5709 5701 5692 5682 5672 5661 5651 5640 5632 5625 5618 5613 5608 5603 5599 5595 5591 5587 5583 5580 5578 5577 5578 5578 5577 5574
5780 5781 5780 5779 5778 5775 5772 5770 5766 5762 5758 5753 5748 5741 5735 5730 5723 5717 5709 5701 5691 5682 5671 5661 5650 5639 5629 5620 5612 5606 5600 5595 5589 5586 5582 5578 5574 5570 5567 5566 5566 5567 5566 5564
5778 5779 5780 5777 5776 5773 5771 5767 5765 5761 5757 5752 5747 5743 5736 5729 5723 5715 5707 5699 5689 5680 5670 5660 5649 5638 5627 5616 5608 5600 5593 5587 5581 5576 5573 5570 5566 5562 5558 5555 5555 5555 5556 5554
5776 5777 5776 5775 5773 5771 5768 5766 5763 5758 5755 5749 5746 5742 5734 5728 5721 5714 5705 5696 5688 5679 5668 5659 5648 5637 5626 5615 5605 5596 5588 5581 5574 5568 5565 5562 5558 5555 5551 5548 5545 5544 5545 5545
5774 5774 5773 5773 5771 5769 5766 5763 5760 5756 5751 5747 5743 5739 5732 5725 5719 5711 5703 5695 5685 5676 5667 5657 5647 5637 5626 5615 5605 5594 5583 5575 5568 5562 5557 5554 5550 5547 5544 5540 5537 5534 5534 5534
5771 5771 5771 5771 5768 5766 5764 5761 5757 5754 5749 5745 5741 5735 5729 5723 5716 5709 5702 5694 5685 5676 5666 5656 5646 5636 5626 5614 5603 5591 5580 5570 5563 5556 5550 5547 5543 5540 5537 5533 5530 5527 5525 5525
5769 5768 5768 5767 5765 5764 5762 5758 5755 5751 5747 5743 5739 5733 5727 5722 5715 5708 5700 5692 5683 5674 5665 5655 5645 5636 5625 5614 5602 5590 5578 5567 5558 5551 5545 5540 5537 5533 5530 5527 5524 5521 5518 5517
5765 5765 5765 5764 5763 5762 5759 5756 5752 5749 5744 5740 5735 5730 5724 5719 5713 5706 5698 5689 5682 5674 5665 5655 5645 5634 5624 5613 5602 5589 5577 5564 5553 5546 5540 5535 5531 5528 5524 5521 5518 5516 5513 5511
5762 5762 5761 5761 5760 5759 5757 5753 5750 5747 5742 5738 5733 5728 5722 5717 5711 5703 5695 5688 5681 5672 5664 5654 5644 5633 5623 5613 5601 5589 5575 5562 5550 5541 5535 5530 5526 5522 5518 5515 5512 5510 5508 5504
5758 5758 5759 5758 5757 5756 5754 5750 5747 5744 5739 5735 5730 5725 5720 5713 5708 5700 5694 5687 5678 5670 5662 5653 5643 5633 5623 5612 5600 5587 5574 5560 5547 5537 5531 5526 5522 5518 5514 5511 5508 5505 5503 5500
5755 5755 5755 5755 5754 5753 5751 5747 5744 5741 5737 5732 5728 5723 5717 5711 5704 5701 5692 5684 5676 5669 5660 5651 5642 5632 5622 5611 5600 5587 5574 5560 5546 5534 5527 5522 5518 5514 5510 5506 5504 5502 5499 5496
5751 5751 5753 5752 5751 5749 5747 5744 5741 5738 5734 5729 5725 5720 5714 5709 5703 5695 5689 5681 5674 5666 5658 5649 5640 5631 5621 5610 5599 5587 5574 5560 5546 5534 5525 5520 5514 5511 5507 5503 5499 5497 5495 5493
5747 5748 5749 5748 5747 5746 5744 5741 5738 5736 5734 5727 5722 5717 5712 5707 5702 5694 5687 5680 5672 5664 5656 5647 5639 5629 5620 5609 5598 5586 5574 5561 5547 5534 5524 5517 5512 5508 5504 5500 5495 5493 5491 5488
5744 5745 5745 5745 5744 5743 5741 5739 5737 5734 5729 5724 5719 5714 5709 5704 5698 5691 5684 5677 5669 5662 5654 5645 5637 5628 5619 5609 5597 5586 5573 5561 5548 5534 5523 5515 5510 5505 5501 5497 5493 5489 5486 5485
5740 5742 5743 5742 5741 5739 5738 5735 5733 5730 5726 5721 5717 5712 5706 5701 5694 5688 5681 5674 5667 5659 5651 5643 5635 5627 5618 5608 5597 5585 5573 5561 5549 5537 5524 5515 5508 5503 5499 5495 5491 5486 5483 5480
5736 5737 5738 5738 5737 5736 5735 5732 5729 5726 5722 5719 5714 5709 5704 5698 5691 5685 5678 5671 5664 5657 5649 5642 5633 5625 5616 5607 5597 5585 5574 5562 5550 5538 5526 5515 5507 5502 5497 5493 5488 5485 5481 5477
5732 5733 5734 5734 5733 5732 5731 5728 5726 5723 5719 5715 5710 5705 5700 5694 5688 5681 5675 5668 5661 5654 5647 5639 5631 5623 5615 5606 5596 5586 5574 5564 5551 5539 5527 5516 5507 5500 5494 5490 5486 5482 5478 5475
5727 5728 5730 5729 5729 5729 5727 5725 5722 5719 5715 5711 5706 5701 5696 5690 5684 5677 5671 5664 5658 5652 5645 5637 5630 5622 5613 5604 5595 5585 5575 5564 5553 5541 5530 5518 5507 5499 5492 5487 5482 5479 5474 5470
Wind_Speed
20 21 22 24 27 28 28 27 30 30 31 34 36 37 37 37 38 39 40 41 41 40 37 34 32 27 28 30 30 28 30 32 33 36 39 46 55 62 66 67 67 67 67 67
20 21 23 25 25 24 24 25 26 28 30 30 31 31 31 34 36 37 38 39 39 38 37 32 32 32 30 29 29 29 25 24 25 27 28 34 41 50 59 66 70 71 70 70
21 23 23 23 23 22 22 25 27 27 28 26 31 33 37 38 39 39 39 37 35 34 33 32 32 32 33 34 35 34 28 30 30 28 26 29 31 34 41 53 63 71 73 73
22 22 22 22 21 21 22 22 22 24 28 27 29 31 38 41 42 42 41 39 38 35 35 36 38 38 38 38 37 36 37 35 33 31 31 27 29 31 33 35 44 53 64 72
20 21 21 20 18 19 20 20 21 22 24 28 32 35 37 41 43 43 43 41 40 40 40 40 40 40 40 42 42 42 39 39 40 39 38 35 34 28 31 33 36 40 45 53
19 19 18 15 16 18 18 19 20 22 23 26 28 31 36 36 39 41 42 42 41 40 39 40 40 40 40 42 43 43 43 42 41 40 41 39 39 36 34 33 33 36 41 41
18 16 13 13 16 16 15 16 16 19 22 24 27 31 32 35 37 39 41 41 43 44 44 42 42 41 41 40 36 39 39 40 41 42 40 40 38 38 39 37 34 32 35 42
15 11 10 12 13 12 12 13 16 19 22 23 25 29 31 33 35 38 41 43 46 47 47 46 44 42 40 38 35 31 33 37 38 37 37 39 39 38 40 40 38 37 34 34
10 8 9 10 10 10 11 13 15 17 18 20 23 26 29 32 36 38 40 42 44 46 48 50 49 46 42 38 36 34 33 32 32 31 32 35 37 38 40 40 40 36 35 35
10 8 8 8 9 10 11 13 16 16 18 21 24 27 29 32 35 36 38 40 42 45 47 49 50 50 46 42 39 36 35 34 34 32 30 30 31 34 38 39 39 39 36 36
9 7 7 8 8 9 11 13 14 16 19 20 22 24 28 30 32 35 37 39 42 44 47 48 50 51 51 48 42 38 36 34 34 34 32 32 31 32 32 36 39 38 38 36
10 8 8 7 8 9 10 13 15 17 20 22 23 25 28 31 33 35 37 39 41 42 46 47 49 51 52 52 48 42 38 35 34 33 32 31 30 30 31 31 33 38 37 34
10 8 8 8 8 8 10 13 16 18 21 23 26 28 30 32 35 38 39 41 43 44 45 48 49 51 52 53 52 50 41 36 34 33 32 28 29 29 29 30 29 31 33 32
11 9 8 9 8 9 11 14 17 18 21 23 26 29 31 33 36 38 38 40 42 44 46 47 48 51 52 54 55 54 49 38 34 33 31 27 27 28 28 28 26 24 28 29
11 9 9 9 9 10 11 14 17 19 20 23 25 27 30 31 34 36 38 41 43 44 45 46 48 50 53 55 57 57 55 45 33 30 29 26 25 26 26 25 25 21 22 23
11 10 10 10 9 10 11 13 16 19 21 22 24 26 29 31 32 35 38 40 41 43 44 46 48 50 53 56 58 60 59 53 37 29 28 25 24 24 24 23 23 19 19 19
12 12 11 11 10 12 13 14 16 19 20 22 24 26 28 30 32 35 37 38 40 42 44 45 47 50 52 55 58 61 62 60 44 30 26 26 23 21 22 22 22 20 18 18
14 12 12 12 12 13 14 16 17 18 20 21 24 26 28 30 32 34 36 37 39 41 43 45 47 50 52 55 58 61 64 64 52 34 26 25 24 22 22 21 20 21 19 17
15 12 12 12 13 15 15 16 17 18 20 21 23 25 28 30 33 31 35 38 38 39 42 45 47 50 52 54 57 60 64 64 59 39 28 25 25 23 22 21 19 19 20 18
15 13 11 12 14 16 15 15 16 17 19 22 24 25 27 29 31 35 36 37 38 39 42 44 47 50 52 54 55 58 62 64 63 47 31 24 24 23 21 21 20 19 18 17
16 14 13 13 14 14 14 15 16 17 19 21 24 25 26 27 29 32 34 36 37 39 41 43 46 48 51 53 54 57 60 64 64 56 38 27 23 23 22 21 20 19 17 17
18 15 14 14 13 14 14 15 17 18 20 23 25 26 27 28 29 30 33 35 37 39 41 43 45 47 50 51 54 56 59 62 63 62 47 33 26 23 23 21 21 19 17 15
17 15 15 15 13 14 14 16 17 19 21 23 26 28 29 30 30 30 32 35 37 39 40 42 44 46 49 51 52 54 56 59 61 62 54 39 30 25 23 22 21 21 19 17
18 16 15 15 14 15 15 17 19 21 22 24 26 28 31 32 31 31 32 34 37 38 40 42 44 46 48 50 51 53 55 57 60 62 60 48 34 28 26 24 22 21 19 18
19 16 16 15 15 17 17 18 20 22 23 24 26 29 31 33 33 32 32 34 36 38 39 41 43 45 47 49 51 52 53 55 57 59 60 54 41 32 29 26 23 21 19 16
19 19 15 16 16 18 18 19 22 24 25 26 27 29 31 34 35 33 33 33 35 37 38 40 42 44 46 49 50 51 52 53 55 57 58 58 48 36 30 29 27 24 22 20
Wind_Direction
304 309 313 315 313 313 314 316 318 319 319 320 320 320 320 320 320 321 320 320 321 322 321 315 307 300 299 300 298 297 286 278 272 265 257 250 248 246 245 245 245 245 246 246
310 317 317 316 315 315 317 316 319 322 325 327 330 333 339 341 341 341 340 338 336 333 327 316 307 306 304 299 296 295 292 294 286 283 279 268 260 255 248 245 243 242 242 244
315 316 317 317 317 318 318 326 328 329 335 335 343 352 359 1 0 356 350 343 335 330 324 316 309 306 301 296 295 292 291 287 278 277 279 277 273 272 272 259 248 245 243 241
315 318 317 316 316 320 326 329 332 339 341 6 7 14 19 14 11 5 357 349 340 333 327 321 312 305 300 297 294 295 286 283 278 279 270 272 274 268 273 277 275 266 251 244
317 316 316 315 319 326 330 334 341 346 360 8 14 20 16 19 16 11 4 353 342 334 326 320 313 308 301 296 292 291 285 283 283 281 275 272 266 268 270 272 280 282 275 262
312 314 310 315 324 326 330 336 342 353 9 18 20 19 27 19 15 12 6 358 349 337 328 322 320 315 317 304 288 287 284 282 284 288 287 283 280 270 267 271 274 278 285 281
311 306 308 319 323 324 333 337 352 6 18 24 20 23 21 18 15 12 8 3 357 351 345 335 330 325 324 324 314 289 288 285 287 292 291 286 282 277 268 267 273 275 281 289
295 293 302 309 318 326 337 356 6 14 16 17 18 20 17 14 12 10 8 5 2 358 352 346 338 331 327 324 321 314 298 293 290 290 289 287 283 280 275 274 273 273 280 287
279 279 294 312 321 334 354 4 11 14 13 11 14 15 14 8 6 7 5 4 3 1 360 358 352 345 337 331 325 318 310 303 301 299 295 291 287 280 276 275 273 273 278 282
265 267 297 314 324 342 349 357 7 7 8 9 5 5 6 4 2 0 1 2 2 2 2 1 360 358 351 343 335 327 320 314 307 303 303 304 298 293 285 276 273 272 279 282
245 263 290 306 318 335 343 353 359 1 2 1 360 360 358 357 356 355 357 359 0 2 3 3 2 1 1 356 344 335 328 321 313 309 303 301 302 304 303 291 277 273 277 280
234 257 282 299 319 328 336 347 352 355 358 359 357 356 355 354 354 353 354 357 359 359 1 3 4 4 2 2 356 343 334 327 319 312 308 302 301 304 305 304 293 282 280 277
232 256 276 298 314 320 336 345 348 350 353 351 351 352 352 352 352 353 354 354 356 358 358 0 3 4 3 1 359 357 342 332 325 318 314 305 303 304 304 305 302 291 286 280
235 257 271 293 306 320 333 343 345 346 347 347 347 347 350 348 348 350 351 353 355 356 356 358 360 1 2 1 360 359 354 338 328 323 318 310 303 306 304 302 303 301 293 287
238 258 269 289 300 319 333 345 345 346 347 347 347 349 349 349 346 348 349 352 355 355 354 355 357 358 359 1 0 358 358 349 332 325 319 314 306 305 305 306 305 305 301 295
240 257 269 286 293 312 331 339 344 345 347 348 348 348 349 350 349 349 350 353 353 353 353 354 355 357 358 360 0 359 358 354 342 328 323 317 310 308 310 312 309 308 307 306
246 259 274 282 289 302 318 328 336 338 343 346 347 349 348 349 351 351 352 353 352 352 352 354 354 356 356 358 359 360 358 358 350 334 325 321 317 314 313 319 321 315 311 311
244 257 274 284 290 303 312 318 326 331 336 343 345 346 347 348 352 350 351 352 354 352 351 353 355 355 356 357 358 360 360 359 356 344 330 325 322 321 316 317 321 322 316 313
243 255 272 284 295 306 310 316 325 327 329 336 339 344 347 348 346 353 350 351 352 349 350 352 354 354 354 356 358 360 2 360 360 352 339 329 325 321 317 315 317 321 322 316
240 253 264 281 296 304 314 319 327 331 333 337 338 341 343 345 346 348 349 349 349 349 350 351 353 353 354 354 357 359 2 3 1 359 348 335 330 327 321 316 316 318 319 315
239 251 264 279 290 300 312 315 326 334 339 343 343 343 340 340 344 345 345 345 347 348 349 350 352 352 353 354 356 359 1 4 3 2 355 345 335 334 329 324 320 316 318 318
234 246 263 277 287 297 308 315 325 334 336 339 340 343 342 339 340 342 343 344 346 348 348 350 351 352 352 354 356 358 1 3 5 4 360 351 343 338 336 331 327 326 323 320
235 244 262 275 285 295 307 314 323 330 334 335 338 343 343 341 339 339 340 343 346 347 347 349 350 352 352 354 356 358 360 2 4 6 4 356 348 342 340 338 331 330 327 325
235 246 262 276 285 294 304 312 322 329 333 335 338 341 342 343 339 338 338 342 344 345 345 348 349 351 351 353 356 357 360 1 4 6 5 0 352 345 342 340 334 331 329 324
237 248 261 277 288 294 302 313 320 326 331 334 336 337 339 341 340 338 338 342 343 343 346 347 347 349 350 352 355 358 358 1 2 4 5 3 356 348 342 338 336 330 326 321
239 247 264 275 285 290 300 311 315 320 325 331 333 334 336 338 340 337 338 339 341 342 344 345 346 347 349 351 354 356 359 0 1 3 5 3 359 350 343 340 336 333 329 327